www.pogodaiklimat.ru

Погода и климат >> Архив погоды >> Индонезия >> Тегал


ПОГОДА в Тегале

  • Прогноз погоды в Тегале
  • Монитор погоды в Тегале

АРХИВ ПОГОДЫ в Тегале

Время (UTC), дата Ветер
(напр.,м/с)
 
Видим.   Явления Облачность Т
(С)
Тd
(С)
f
(%)
Тe
(С)
Тes
(С)
Комфортность P
(гПа)
Po
(гПа)
Тmin
(С)
Tmax
(С)
R
(мм)
R24
(мм)
S
(см)
15 10.09 Ю 2 7000 м 3/0
[Ci fib]
+25.6 +20.7 74 +32 +32 очень
душно
1015.0 1014.7
18 10.09 Ю 5 7000 м 5/1 600 м
[Sc Ci fib]
+25.0 +20.4 76 +31 +31 очень
душно
1014.0 1013.6
21 10.09 Ю 2 7000 м 4/0
[Ci fib]
+24.2 +19.8 76 +29 +29 душно 1013.4 1013.0
00 11.09 Ю 4 10 км 4/0
[Ci fib]
+24.6 +18.9 71 +30 +31 очень
душно
1014.9 1014.5 +23.6
03 11.09 СВ 3 12 км 3/0
[Ci fib]
+30.2 +22.2 62 +39 +53 опасность
солнечного
удара
1015.2 1014.8
06 11.09 С 4 12 км 3/0
[Ci fib]
+30.7 +20.1 53 +37 +49 очень
душно
1012.5 1012.2
09 11.09 С 5 12 км 1/0
[Ci fib]
+30.0 +21.4 60 +38 +40 очень
душно
1011.0 1010.7
12 11.09 ЮЗ 6 8000 м 4/0
[Ci fib]
+27.9 +21.0 66 +35 +35 очень
душно
1013.1 1012.7 +31.2
15 11.09 ЮЗ 5 8000 м 4/1 600 м
[Sc Ci fib]
+25.8 +20.3 72 +32 +32 очень
душно
1014.9 1014.5
18 11.09 Ю 3 8000 м 4/1 600 м
[Sc Ci fib]
+24.5 +19.8 75 +30 +30 очень
душно
1013.9 1013.6
21 11.09 Ю 3 8000 м 4/4 600 м
[]
+23.3 +18.5 74 +29 +29 душно 1013.8 1013.4
00 12.09 Ю 3 10 км 4/1 600 м
[Sc Ci fib]
+23.6 +17.7 70 +28 +29 душно 1015.5 1015.1 +22.6
03 12.09 Ю 2 12 км 4/4 600 м
[]
+30.2 +15.6 41 +33 +43 душно 1015.7 1015.4
06 12.09 СВ 3 12 км 4/1 600 м
[Sc Ci fib]
+32.2 +18.9 45 +37 +52 опасность
солнечного
удара
1012.6 1012.2
09 12.09 СВ 4 12 км 4/1 600 м
[Sc Ci fib]
+29.8 +18.8 52 +35 +37 очень
душно
1011.2 1010.8
12 12.09 З 1 8000 м 5/1 600 м
[Sc Ac trans Ci fib]
+26.9 +16.0 51 +30 +30 душно 1013.0 1012.7 +32.8
15 12.09 Ю 2 8000 м 5/1 600 м
[Sc Ac trans Ci fib]
+24.3 +16.8 63 +28 +28 душно 1014.7 1014.4
18 12.09 штиль 0 8000 м 5/1 600 м
[Sc Ac trans Ci fib]
+22.6 +17.0 71 +27 +27 душно 1014.0 1013.6
21 12.09 Ю 1 8000 м 5/1 600 м
[Sc Ac trans Ci fib]
+21.2 +17.0 77 +25 +25 комфорт 1014.5 1014.1
00 13.09 ЮЗ 3 10 км 9/1 600 м
[Sc Ci fib]
+22.1 +16.3 70 +26 +28 душно 1015.2 1014.9 +21.2
03 13.09 штиль 0 12 км 5/1 600 м
[Sc Ci fib]
+29.6 +14.7 40 +32 +51 опасность
солнечного
удара
1014.9 1014.5
06 13.09 С 4 12 км 4/1 600 м
[Sc Ci fib]
+31.0 +17.0 43 +35 +47 очень
душно
1011.9 1011.5
09 13.09 С 2 12 км 4/3 600 м
[Sc Ci fib]
+29.3 +18.0 51 +34 +37 очень
душно
1011.0 1010.6
12 13.09 штиль 0 8000 м 8/3 600 м
[Sc Ac trans Ci fib]
+27.5 +19.8 63 +33 +33 очень
душно
1013.3 1013.0 +32.1
15 13.09 Ю 3 8000 м 4/4 600 м
[]
+25.3 +18.8 67 +30 +30 душно 1014.8 1011.4
18 13.09 Ю 5 8000 м 4/1 600 м
[Sc Ac trans Ci fib]
+24.0 +19.3 75 +29 +29 душно 1013.6 1013.3
21 13.09 ЮЗ 4 8000 м 4/0 600 м
[Ci fib]
+23.4 +18.8 75 +30 +30 очень
душно
1013.3 1013.0
00 14.09 Ю 2 10 км 4/0
[Ci fib]
+23.8 +19.0 75 +29 +31 душно 1014.7 1014.4 +20.8
03 14.09 С 2 12 км 3/1 600 м
[Sc Ci fib]
+30.0 +19.4 53 +36 +51 опасность
солнечного
удара
1014.6 1014.3
06 14.09 СВ 4 12 км 4/1 600 м
[Sc Ci fib]
+30.0 +21.7 61 +38 +49 очень
душно
1012.2 1011.8
09 14.09 В 3 11 км 8/4 600 м
[Sc Ac trans Ci fib]
+29.2 +19.2 55 +35 +36 очень
душно
1010.9 1010.6
12 14.09 СВ 2 8000 м 9/5 600 м
[Sc Ac trans Ci fib]
+27.6 +20.1 64 +34 +34 очень
душно
1012.6 1012.2 +30.3
15 14.09 Ю 1 7000 м 9/5 600 м
[Sc Ac trans Ci fib]
+25.0 +21.2 79 +32 +32 очень
душно
1013.4 1013.0
18 14.09 Ю 2 7000 м 9/4 600 м
[Sc Ac trans Ci fib]
+24.6 +20.6 78 +31 +31 очень
душно
1012.1 1011.7
21 14.09 Ю 3 7000 м 9/3 600 м
[Sc Ac trans Ci fib]
+23.8 +19.7 78 +29 +29 душно 1012.0 1011.6
00 15.09 ЮЗ 1 9000 м 9/5 600 м
[Sc Ac As Ci fib]
+23.8 +19.9 79 +29 +30 душно 1012.8 1012.5 +22.0
03 15.09 Ю 2 12 км 8/3 600 м
[Sc Ac trans Ci fib]
+29.8 +19.2 53 +35 +44 очень
душно
1013.0 1012.6
06 15.09 СВ 3 12 км 6/1 600 м
[Sc Ci fib]
+30.4 +20.8 57 +38 +50 очень
душно
1010.3 1009.9
09 15.09 СВ 4 12 км 5/1 600 м
[Sc Ci fib]
+29.2 +21.8 64 +37 +40 очень
душно
1008.9 1008.5
12 15.09 В 2 8000 м 8/1 600 м
[Sc Ac trans Ci fib]
+27.6 +21.9 71 +36 +36 очень
душно
1010.8 1010.5 +30.6
15 15.09 Ю 2 8000 м 9/5 600 м
[Sc Ac trans Ci fib]
+27.0 +21.5 72 +34 +34 очень
душно
1011.9 1011.5
18 15.09 Ю 2 8000 м в посл. час дождь 9/5 600 м
[Sc Ac trans Ci fib]
+25.2 +20.8 77 +32 +32 очень
душно
1011.2 1010.8 0.0
21 15.09 В 2 8000 м 9/5 600 м
[Sc Ac As Ci fib]
+25.0 +29.1 100 +36 +36 очень
душно
1011.5 1011.1
00 16.09 штиль 0 9000 м 9/5 600 м
[Sc Ac trans Ci fib]
+25.2 +20.6 76 +31 +32 очень
душно
1012.5 1012.1 +24.0 0.0
03 16.09 В 5 10 км 3/1 600 м
[Sc Ci fib]
+30.2 +20.6 56 +37 +46 очень
душно
1012.3 1011.9
06 16.09 СВ 6 10 км 3/1 600 м
[Sc Ci fib]
+30.4 +21.3 58 +38 +46 очень
душно
1009.9 1009.6
09 16.09 С 2 10 км 3/0
[Ci fib]
+29.4 +23.0 68 +39 +43 очень
душно
1009.0 1008.6
12 16.09 СВ 3 8000 м 6/3 600 м
[Sc Ac trans Ci fib]
+27.8 +23.0 75 +37 +37 очень
душно
1010.7 1010.3 +31.2
15 16.09 ЮЗ 6 8000 м 8/3 600 м
[Sc Ac trans Ci fib]
+26.6 +21.2 72 +34 +34 очень
душно
1012.2 1011.9
18 16.09 ЮЗ 4 8000 м 6/1 600 м
[Sc Ac trans Ci fib]
+25.4 +20.9 76 +32 +32 очень
душно
1011.4 1011.1
21 16.09 Ю 3 8000 м 5/1 600 м
[Sc Ac trans Ci fib]
+24.7 +21.0 80 +31 +31 очень
душно
1011.4 1011.1
00 17.09 Ю 3 10 км 8/4 600 м
[Sc As op Ci fib]
+25.2 +20.6 76 +31 +32 очень
душно
1013.5 1013.2 +24.0
03 17.09 В 3 12 км 5/1 600 м
[Sc As op Ci fib]
+29.6 +21.6 62 +38 +48 очень
душно
1013.6 1013.2
06 17.09 СВ 4 10 км 4/1 600 м
[Sc Ci fib]
+30.4 +22.1 61 +39 +51 опасность
солнечного
удара
1010.8 1010.4
09 17.09 С 2 10 км 5/1 600 м
[Sc Ci fib]
+29.2 +22.4 67 +38 +42 очень
душно
1010.1 1009.7
12 17.09 В 3 7000 м 8/5 600 м
[Sc Ac trans Ci fib]
+28.0 +23.3 76 +38 +38 очень
душно
1012.3 1012.0 +30.8

 

Местоположение метеостанции Тегал (Индонезия): широта -6.85 долгота 109.15 высота над уровнем моря 10 м.

В архиве по умолчанию представлена погода в Тегале за последнюю неделю. Архивные данные за месяц целиком и за предыдущие месяцы, начиная с января 2011 года, Вы можете получить, выбрав интересующий диапазон дат из раскрывающегося списка и нажав кнопку "Ввод!".


*Определитесь, кто Вы:
робот инопланетянин человек

Внимание! Время в таблицах - всемирное. Для получения местного времени необходимо прибавить поправку, которая равна 7 ч.

Смотрите также архив погоды в соседних городах и на ближайших метеорологических станциях:

Погода в Сиребоне (Индонезия) (99 км)
Погода в Чилачапе (Индонезия) (99 км)
Погода в Аэропорту Ахмад Яни (Индонезия) (137 км)
Погода в Семаранге (Индонезия) (140 км)
Погода в Бандунге (Индонезия) (173 км)
Погода в Цитеко (Индонезия) (246 км)
Погода в Джакарта порту (Индонезия) (265 км)
Погода в Джакарте (Индонезия) (267 км)
Погода в Чуруге (Индонезия) (285 км)
Погода в Аэропорту Сукарно-Хатта (Индонезия) (288 км)

Пояснения к столбцам:

Ветер - указаны скорость ветра в м/с - средняя за 10 мин, порывы в срок и между сроками (в фигурных скобках) и направление, откуда дует ветер: С - северный, СВ - северо-восточный, В - восточный, ЮВ - юго-восточный, Ю - южный, ЮЗ - юго-западный, З - западный, СЗ - северо-западный.
Видимость - горизонтальная дальность видимости в метрах или километрах. При видимости от 1 до 10 км при отсутствии осадков обычно наблюдается дымка, при ухудшении видимости до 1 км и менее - туман. В сухую погоду видимость может ухудшаться дымом, пылью или мглою.
Явления - указаны атмосферные явления, наблюдавшиеся в срок или в последний час перед сроком; фигурными скобками обозначены явления, наблюдавшиеся между сроками (за 1-3 часа до срока); квадратными скобками обозначены град или гололедные отложения с указанием их диаметра в мм.
Облачность - указаны через наклонную черту общая и нижняя облачность в баллах и высота нижней границы облаков в метрах; квадратными скобками обозначены формы облаков: Ci - перистые, Cs - перисто-слоистые, Cc - перисто-кучевые, Ac - высококучевые, As - высокослоистые, Sc - слоисто-кучевые, Ns - слоисто-дождевые, Cu - кучевые, Cb - кучево-дождевые. Подробнее классификацию облаков см. в Атласе облаков (PDF).
T - Температура воздуха - температура, измеренная на высоте 2 м над землей.
Td - Температура точки росы - температура, при понижении до которой содержащийся в воздухе водяной пар достигнет насыщения.
f - Относительная влажность воздуха - влажноcть воздуха, измеренная на высоте 2 м над землей.
Te - Эффективная температура - температура, которую ощущает одетый по сезону человек в тени. Характеристика душности погоды. При расчете учитывается влияние влажности воздуха и скорости ветра на теплоощущения человека.
Tes - Эффективная температура на солнце - температура, которую ощущает человек, с поправкой на солнечный нагрев. Характеристика знойности погоды. Зависит от высоты солнца над горизонтом, облачности и скорости ветра. Ночью, в пасмурную погоду, а также при ветре 12 м/с и более поправка равна нулю.
P - Атмосферное давление - приведенное к уровню моря атмосферное давление.
Po - Атмосферное давление - измеренное на уровне метеостанции атмосферное давление.
Tmin - Минимальная температура - минимум температуры воздуха на высоте 2 м над землей.
Tmax - Максимальная температура - максимум температуры воздуха на высоте 2 м над землей.
R - Количество осадков - Количество выпавших осадков за период времени, мм. При наведении курсора мыши на число - период времени, за который выпало указанное количество осадков.
R24 - Количество осадков - Количество выпавших осадков за 24 часа, мм.
S - Снежный покров - Высота снежного покрова, см. При наведении курсора мыши на число - состояние снежного покрова и степень покрытия местности в баллах.